Location: Bern/Schweiz
(46.9381°N, 7.4364°E)
Time: 22:42:00
(UTC+01:00)

ISS - Pass Details

Date: 01 October 2020
Orbit: 417 x 420 km, 51.6° (Epoch: 27 October)

Event Time Altitude Azimuth Distance (km) Brightness Sun altitude
Rises 21:05:31 0° 295° (WNW) 2,371 1.6 -20.5°
Reaches altitude 10° 21:07:37 10° 294° (WNW) 1,504 0.2 -20.8°
Enters shadow 21:10:41 69° 265° (W) 453 -3.5 -21.3°
